| time (UTC) | temp C | wind direction | speed KPH | gust KPH | rain 1hr cm | rain 24hr cm | rain mn cm | humidity % | barometer mb |
| 20260503070308 | 3 | 230 | 22.5 | 0.0 | 0.00 | 0.00 | 0.00 | 51 | 1009.0 |
| 20260503060307 | 2 | 190 | 12.9 | 0.0 | 0.00 | 0.00 | 0.00 | 64 | 1009.0 |
| 20260503053306 | 1 | 190 | 8.0 | 0.0 | 0.00 | 0.00 | 0.00 | 69 | 1009.0 |
| 20260503050307 | 0 | 170 | 9.7 | 0.0 | 0.00 | 0.00 | 0.00 | 80 | 1009.0 |
| 20260503043309 | 1 | 270 | 14.5 | 0.0 | 0.00 | 0.00 | 0.00 | 74 | 1009.0 |
| 20260503040306 | 0 | 150 | 9.7 | 0.0 | 0.00 | 0.00 | 0.00 | 74 | 1009.0 |
| 20260503033307 | 1 | 240 | 9.7 | 0.0 | 0.00 | 0.00 | 0.00 | 69 | 1009.0 |
| 20260503030307 | 1 | 0 | 11.3 | 29.0 | 0.00 | 0.00 | 0.00 | 74 | 1009.0 |
| 20260503023306 | 2 | 290 | 14.5 | 0.0 | 0.00 | 0.00 | 0.00 | 59 | 1009.0 |
| 20260503020307 | 2 | 270 | 16.1 | 0.0 | 0.00 | 0.00 | 0.00 | 59 | 1009.0 |
| 20260503013308 | 1 | 290 | 12.9 | 0.0 | 0.00 | 0.00 | 0.00 | 74 | 1009.0 |
| 20260503010309 | 1 | 0 | 0.0 | 0.0 | 0.00 | 0.00 | 0.00 | 80 | 1009.0 |
| 20260503003309 | 1 | 0 | 12.9 | 0.0 | 0.00 | 0.00 | 0.00 | 80 | 1010.0 |
| 20260503000306 | 2 | 290 | 14.5 | 0.0 | 0.00 | 0.00 | 0.00 | 69 | 1010.0 |
| 20260502233310 | 2 | 290 | 19.3 | 0.0 | 0.00 | 0.00 | 0.00 | 69 | 1010.0 |
| 20260502230307 | 2 | 280 | 14.5 | 0.0 | 0.00 | 0.00 | 0.00 | 64 | 1010.0 |
| 20260502223307 | 2 | 270 | 19.3 | 0.0 | 0.00 | 0.00 | 0.00 | 64 | 1009.0 |
| 20260502220307 | 2 | 290 | 14.5 | 0.0 | 0.00 | 0.00 | 0.00 | 74 | 1009.0 |
| 20260502213308 | 1 | 0 | 12.9 | 0.0 | 0.00 | 0.00 | 0.00 | 80 | 1009.0 |
| 20260502210306 | 1 | 300 | 20.9 | 0.0 | 0.00 | 0.00 | 0.00 | 93 | 1009.0 |
| 20260502203306 | 2 | 340 | 9.7 | 0.0 | 0.00 | 0.00 | 0.00 | 86 | 1009.0 |
| 20260502200307 | 2 | 0 | 8.0 | 0.0 | 0.00 | 0.00 | 0.00 | 86 | 1008.0 |
| 20260502193309 | 2 | 320 | 16.1 | 0.0 | 0.00 | 0.00 | 0.00 | 86 | 1008.0 |
| 20260502190307 | 3 | 240 | 11.3 | 0.0 | 0.00 | 0.00 | 0.00 | 86 | 1007.0 |
| 20260502183306 | 3 | 230 | 19.3 | 0.0 | 0.00 | 0.00 | 0.00 | 80 | 1007.0 |
| 20260502180308 | 3 | 240 | 19.3 | 0.0 | 0.00 | 0.00 | 0.00 | 75 | 1007.0 |
| 20260502170308 | 5 | 230 | 29.0 | 0.0 | 0.00 | 0.00 | 0.00 | 75 | 1007.0 |
| 20260502163308 | 2 | 250 | 12.9 | 0.0 | 0.00 | 0.00 | 0.00 | 86 | 1007.0 |
| 20260502160309 | 5 | 210 | 22.5 | 0.0 | 0.00 | 0.00 | 0.00 | 80 | 1007.0 |
| 20260502150309 | 5 | 250 | 19.3 | 0.0 | 0.00 | 0.00 | 0.00 | 80 | 1007.0 |
| 20260502130309 | 6 | 230 | 27.4 | 0.0 | 0.00 | 0.00 | 0.00 | 70 | 1007.0 |
| 20260502123308 | 6 | 230 | 27.4 | 0.0 | 0.00 | 0.00 | 0.00 | 65 | 1007.0 |
| 20260502120309 | 5 | 240 | 24.1 | 0.0 | 0.00 | 0.00 | 0.00 | 70 | 1007.0 |
| 20260502113310 | 5 | 240 | 29.0 | 0.0 | 0.00 | 0.00 | 0.00 | 75 | 1007.0 |
| 20260502110309 | 6 | 230 | 29.0 | 0.0 | 0.00 | 0.00 | 0.00 | 60 | 1007.0 |
| 20260502103308 | 5 | 240 | 27.4 | 0.0 | 0.00 | 0.00 | 0.00 | 65 | 1007.0 |
| 20260502100308 | 6 | 240 | 24.1 | 0.0 | 0.00 | 0.00 | 0.00 | 60 | 1007.0 |
| 20260502090308 | 5 | 250 | 20.9 | 0.0 | 0.00 | 0.00 | 0.00 | 65 | 1007.0 |